EW4956 Weather Reports


Display with metric or nautical units.
time (UTC)temp
F
wind
direction
speed
MPH
gust
MPH
rain 1hr
in
rain 24hr
in
rain mn
in
humidity
%
barometer
mb
20180923114337 65 247 3.0 9.0 0.00 0.00 0.00 26 1003.8
20180923112837 65 249 2.0 7.0 0.00 0.00 0.00 26 1003.9
20180923111335 65 248 2.0 7.0 0.00 0.00 0.00 26 1003.8
20180923105836 65 247 2.0 5.0 0.00 0.00 0.00 26 1003.8
20180923104334 65 247 2.0 5.0 0.00 0.00 0.00 26 1003.9
20180923102833 65 247 1.0 5.0 0.00 0.00 0.00 25 1004.0
20180923101331 66 247 1.0 4.0 0.00 0.00 0.00 25 1004.1
20180923095830 66 262 4.0 12.0 0.00 0.00 0.00 25 1004.2
20180923094327 67 226 2.0 6.0 0.00 0.00 0.00 24 1004.2
20180923092824 68 221 2.0 5.0 0.00 0.00 0.00 23 1004.2
20180923091324 69 212 3.0 13.0 0.00 0.00 0.00 22 1004.2
20180923085824 69 196 4.0 12.0 0.00 0.00 0.00 21 1004.1
20180923084321 69 176 4.0 9.0 0.00 0.00 0.00 21 1004.3
20180923082820 69 193 5.0 10.0 0.00 0.00 0.00 20 1004.3
20180923081322 70 208 4.0 10.0 0.00 0.00 0.00 20 1004.5
20180923075823 70 180 4.0 9.0 0.00 0.00 0.00 20 1004.5
20180923074317 70 190 3.0 9.0 0.00 0.00 0.00 20 1004.6
20180923072823 70 171 5.0 15.0 0.00 0.00 0.00 20 1004.5
20180923071318 70 193 4.0 10.0 0.00 0.00 0.00 21 1004.6
20180923065816 69 148 4.0 11.0 0.00 0.00 0.00 21 1004.5
20180923064309 68 179 2.0 12.0 0.00 0.00 0.00 22 1004.7
20180923062808 67 210 2.0 6.0 0.00 0.00 0.00 22 1004.8
20180923061305 67 209 1.0 5.0 0.00 0.00 0.00 23 1004.9
20180923055803 67 221 1.0 5.0 0.00 0.00 0.00 24 1004.9
20180923054302 67 221 1.0 4.0 0.00 0.00 0.00 24 1005.0
20180923052802 67 221 0.0 4.0 0.00 0.00 0.00 24 1005.1
20180923051301 67 221 0.0 3.0 0.00 0.00 0.00 25 1005.2
20180923045758 67 221 1.0 3.0 0.00 0.00 0.00 25 1005.3
20180923044256 67 221 0.0 0.0 0.00 0.00 0.00 24 1005.5
20180923042759 67 221 1.0 5.0 0.00 0.00 0.00 24 1005.5
20180923041257 68 221 2.0 4.0 0.00 0.00 0.00 24 1005.5
20180923035755 68 221 2.0 4.0 0.00 0.00 0.00 23 1005.7
20180923034258 68 221 2.0 4.0 0.00 0.00 0.00 23 1005.7
20180923032755 69 221 0.0 4.0 0.00 0.00 0.00 23 1005.7
20180923031250 69 221 2.0 4.0 0.00 0.00 0.00 23 1005.7
20180923025752 68 221 0.0 5.0 0.00 0.00 0.00 23 1005.8
20180923024337 68 221 3.0 4.0 0.00 0.00 0.00 23 1005.8
20180923022837 69 221 2.0 4.0 0.00 0.00 0.00 22 1005.7
20180923021333 70 221 3.0 5.0 0.00 0.00 0.00 21 1005.9
20180923015833 71 221 2.0 5.0 0.00 0.00 0.00 20 1005.9
20180923014332 72 221 1.0 3.0 0.00 0.00 0.00 20 1005.9
20180923012800 73 220 1.0 4.0 0.00 0.00 0.00 19 1006.0
20180923011332 73 219 3.0 7.0 0.00 0.00 0.00 18 1006.1
20180923005832 74 188 4.0 8.0 0.00 0.00 0.00 18 1006.1
20180923004329 75 190 4.0 10.0 0.00 0.00 0.00 17 1006.0
20180923002858 76 181 5.0 14.0 0.00 0.00 0.00 16 1006.1
20180923001330 77 198 6.0 11.0 0.00 0.00 0.00 15 1006.1
20180922235831 77 198 6.0 12.0 0.00 0.00 0.00 14 1006.2
20180922234325 78 181 2.0 7.0 0.00 0.00 0.00 16 1006.2
20180922232830 78 195 5.0 11.0 0.00 0.00 0.00 16 1006.4
20180922231324 79 172 3.0 12.0 0.00 0.00 0.00 16 1006.6
20180922225820 80 167 5.0 13.0 0.00 0.00 0.00 16 1006.7
20180922224321 81 162 5.0 13.0 0.00 0.00 0.00 15 1006.9
20180922222818 80 215 6.0 12.0 0.00 0.00 0.00 14 1007.2
20180922221320 81 154 5.0 13.0 0.00 0.00 0.00 13 1007.3
20180922215816 81 165 7.0 13.0 0.00 0.00 0.00 13 1007.6
20180922214314 81 201 5.0 14.0 0.00 0.00 0.00 13 1007.8
20180922212825 81 157 5.0 18.0 0.00 0.00 0.00 12 1008.0
20180922211312 82 171 6.0 11.0 0.00 0.00 0.00 12 1008.3
20180922205806 81 198 6.0 12.0 0.00 0.00 0.00 12 1008.4
20180922204307 81 186 4.0 12.0 0.00 0.00 0.00 13 1008.7
20180922202808 81 182 6.0 14.0 0.00 0.00 0.00 11 1008.9
20180922201303 81 189 4.0 11.0 0.00 0.00 0.00 11 1009.3
20180922195757 81 184 3.0 11.0 0.00 0.00 0.00 12 1009.6
20180922194306 80 184 4.0 10.0 0.00 0.00 0.00 11 1009.8
20180922192752 80 212 6.0 10.0 0.00 0.00 0.00 11 1009.8
20180922191248 80 167 6.0 15.0 0.00 0.00 0.00 11 1010.2
20180922185750 80 187 6.0 11.0 0.00 0.00 0.00 11 1010.5
20180922184244 80 188 5.0 12.0 0.00 0.00 0.00 13 1010.5
20180922182741 79 184 5.0 11.0 0.00 0.00 0.00 13 1010.7
20180922181239 79 186 4.0 9.0 0.00 0.00 0.00 14 1011.1
20180922175736 77 175 4.0 13.0 0.00 0.00 0.00 16 1011.2
20180922174230 77 185 4.0 9.0 0.00 0.00 0.00 16 1011.3
20180922172729 77 183 5.0 10.0 0.00 0.00 0.00 15 1011.4
20180922171134 77 198 5.0 8.0 0.00 0.00 0.00 15 1011.4
20180922165721 76 207 3.0 9.0 0.00 0.00 0.00 16 1011.4
20180922164212 75 216 3.0 7.0 0.00 0.00 0.00 15 1011.6
20180922162708 74 238 3.0 7.0 0.00 0.00 0.00 15 1011.6
20180922161205 73 240 4.0 8.0 0.00 0.00 0.00 15 1011.7
20180922155700 72 240 2.0 7.0 0.00 0.00 0.00 15 1011.7
20180922154158 71 240 2.0 4.0 0.00 0.00 0.00 15 1011.8
20180922152705 69 240 1.0 3.0 0.00 0.00 0.00 16 1012.0
20180922151147 67 240 0.0 3.0 0.00 0.00 0.00 18 1012.0
20180922145610 64 240 1.0 2.0 0.00 0.00 0.00 18 1012.1
20180922144138 61 240 1.0 2.0 0.00 0.00 0.00 22 1012.2
20180922142634 59 240 0.0 2.0 0.00 0.00 0.00 24 1012.2
20180922141134 58 240 0.0 0.0 0.00 0.00 0.00 23 1012.3
20180922135656 58 240 1.0 3.0 0.00 0.00 0.00 23 1012.2
20180922134129 58 240 1.0 5.0 0.00 0.00 0.00 21 1012.0
20180922132627 57 240 1.0 3.0 0.00 0.00 0.00 20 1012.0
20180922131131 57 240 3.0 5.0 0.00 0.00 0.00 21 1012.0
20180922125626 57 240 3.0 7.0 0.00 0.00 0.00 21 1012.0
20180922124123 56 240 2.0 4.0 0.00 0.00 0.00 21 1012.1
20180922122533 56 240 1.0 3.0 0.00 0.00 0.00 20 1012.1
20180922121123 56 240 1.0 3.0 0.00 0.00 0.00 19 1012.1
20180922115620 57 240 1.0 3.0 0.00 0.00 0.00 19 1012.2